owner,sensor,date,latitude,longitude,sea_surface_height_above_sea_level,qcFlag 
COMPS,ioos:station:USF.COMPS:BGC:1,2010-05-01T00:00:00Z,26.4040,-81.8810,-0.428,1111122 
COMPS,ioos:station:USF.COMPS:BGC:1,2010-05-01T00:06:00Z,26.4040,-81.8810,-0.442,1111122 
COMPS,ioos:station:USF.COMPS:BGC:1,2010-05-01T00:12:00Z,26.4040,-81.8810,-0.455,1111122 
COMPS,ioos:station:USF.COMPS:BGC:1,2010-05-01T00:18:00Z,26.4040,-81.8810,-0.469,1111122 
COMPS,ioos:station:USF.COMPS:BGC:1,2010-05-01T00:24:00Z,26.4040,-81.8810,-0.484,1111122 
COMPS,ioos:station:USF.COMPS:BGC:1,2010-05-01T00:30:00Z,26.4040,-81.8810,-0.495,1111122 
COMPS,ioos:station:USF.COMPS:BGC:1,2010-05-01T00:36:00Z,26.4040,-81.8810,-0.508,1111122 
COMPS,ioos:station:USF.COMPS:BGC:1,2010-05-01T00:42:00Z,26.4040,-81.8810,-0.521,1111122 
COMPS,ioos:station:USF.COMPS:BGC:1,2010-05-01T00:48:00Z,26.4040,-81.8810,-0.534,1111122 
COMPS,ioos:station:USF.COMPS:BGC:1,2010-05-01T00:54:00Z,26.4040,-81.8810,-0.547,1111122 
COMPS,ioos:station:USF.COMPS:BGC:1,2010-05-01T01:00:00Z,26.4040,-81.8810,-0.557,1111122 
COMPS,ioos:station:USF.COMPS:BGC:1,2010-05-01T01:06:00Z,26.4040,-81.8810,-0.567,1111122 
COMPS,ioos:station:USF.COMPS:BGC:1,2010-05-01T01:12:00Z,26.4040,-81.8810,-0.574,1111122 
COMPS,ioos:station:USF.COMPS:BGC:1,2010-05-01T01:18:00Z,26.4040,-81.8810,-0.582,1111122 
COMPS,ioos:station:USF.COMPS:BGC:1,2010-05-01T01:24:00Z,26.4040,-81.8810,-0.587,1111122 
COMPS,ioos:station:USF.COMPS:BGC:1,2010-05-01T01:30:00Z,26.4040,-81.8810,-0.591,1111122 
COMPS,ioos:station:USF.COMPS:BGC:1,2010-05-01T01:36:00Z,26.4040,-81.8810,-0.601,1111122 
COMPS,ioos:station:USF.COMPS:BGC:1,2010-05-01T01:42:00Z,26.4040,-81.8810,-0.602,1111122 
COMPS,ioos:station:USF.COMPS:BGC:1,2010-05-01T01:48:00Z,26.4040,-81.8810,-0.607,1111122 
COMPS,ioos:station:USF.COMPS:BGC:1,2010-05-01T01:54:00Z,26.4040,-81.8810,-0.611,1111122 
COMPS,ioos:station:USF.COMPS:BGC:1,2010-05-01T02:00:00Z,26.4040,-81.8810,-0.609,1111122 
COMPS,ioos:station:USF.COMPS:BGC:1,2010-05-01T02:06:00Z,26.4040,-81.8810,-0.61,1111122 
COMPS,ioos:station:USF.COMPS:BGC:1,2010-05-01T02:12:00Z,26.4040,-81.8810,-0.6,1111122 
COMPS,ioos:station:USF.COMPS:BGC:1,2010-05-01T02:18:00Z,26.4040,-81.8810,-0.592,1111122 
COMPS,ioos:station:USF.COMPS:BGC:1,2010-05-01T02:24:00Z,26.4040,-81.8810,-0.58,1111122 
COMPS,ioos:station:USF.COMPS:BGC:1,2010-05-01T02:30:00Z,26.4040,-81.8810,-0.579,1111122 
COMPS,ioos:station:USF.COMPS:BGC:1,2010-05-01T02:36:00Z,26.4040,-81.8810,-0.565,1111122 
COMPS,ioos:station:USF.COMPS:BGC:1,2010-05-01T02:42:00Z,26.4040,-81.8810,-0.563,1111122 
COMPS,ioos:station:USF.COMPS:BGC:1,2010-05-01T02:48:00Z,26.4040,-81.8810,-0.542,1111122 
COMPS,ioos:station:USF.COMPS:BGC:1,2010-05-01T02:54:00Z,26.4040,-81.8810,-0.524,1111122 
COMPS,ioos:station:USF.COMPS:BGC:1,2010-05-01T03:00:00Z,26.4040,-81.8810,-0.51,1111122 
COMPS,ioos:station:USF.COMPS:BGC:1,2010-05-01T03:06:00Z,26.4040,-81.8810,-0.498,1111122 
COMPS,ioos:station:USF.COMPS:BGC:1,2010-05-01T03:12:00Z,26.4040,-81.8810,-0.485,1111122 
COMPS,ioos:station:USF.COMPS:BGC:1,2010-05-01T03:18:00Z,26.4040,-81.8810,-0.471,1111122 
COMPS,ioos:station:USF.COMPS:BGC:1,2010-05-01T03:24:00Z,26.4040,-81.8810,-0.46,1111122 
COMPS,ioos:station:USF.COMPS:BGC:1,2010-05-01T03:30:00Z,26.4040,-81.8810,-0.456,1111122 
COMPS,ioos:station:USF.COMPS:BGC:1,2010-05-01T03:36:00Z,26.4040,-81.8810,-0.432,1111122 
COMPS,ioos:station:USF.COMPS:BGC:1,2010-05-01T03:42:00Z,26.4040,-81.8810,-0.414,1111122 
COMPS,ioos:station:USF.COMPS:BGC:1,2010-05-01T03:48:00Z,26.4040,-81.8810,-0.4,1111122 
COMPS,ioos:station:USF.COMPS:BGC:1,2010-05-01T03:54:00Z,26.4040,-81.8810,-0.385,1111122 
COMPS,ioos:station:USF.COMPS:BGC:1,2010-05-01T04:00:00Z,26.4040,-81.8810,-0.366,1111122 
COMPS,ioos:station:USF.COMPS:BGC:1,2010-05-01T04:06:00Z,26.4040,-81.8810,-0.351,1111122 
COMPS,ioos:station:USF.COMPS:BGC:1,2010-05-01T04:12:00Z,26.4040,-81.8810,-0.341,1111122 
COMPS,ioos:station:USF.COMPS:BGC:1,2010-05-01T04:18:00Z,26.4040,-81.8810,-0.324,1111122 
COMPS,ioos:station:USF.COMPS:BGC:1,2010-05-01T04:24:00Z,26.4040,-81.8810,-0.312,1111122 
COMPS,ioos:station:USF.COMPS:BGC:1,2010-05-01T04:30:00Z,26.4040,-81.8810,-0.295,1111122 
COMPS,ioos:station:USF.COMPS:BGC:1,2010-05-01T04:36:00Z,26.4040,-81.8810,-0.282,1111122 
COMPS,ioos:station:USF.COMPS:BGC:1,2010-05-01T04:42:00Z,26.4040,-81.8810,-0.266,1111122 
COMPS,ioos:station:USF.COMPS:BGC:1,2010-05-01T04:48:00Z,26.4040,-81.8810,-0.249,1111122 
COMPS,ioos:station:USF.COMPS:BGC:1,2010-05-01T04:54:00Z,26.4040,-81.8810,-0.233,1111122 
COMPS,ioos:station:USF.COMPS:BGC:1,2010-05-01T05:00:00Z,26.4040,-81.8810,-0.22,1111122 
COMPS,ioos:station:USF.COMPS:BGC:1,2010-05-01T05:06:00Z,26.4040,-81.8810,-0.204,1111122 
COMPS,ioos:station:USF.COMPS:BGC:1,2010-05-01T05:12:00Z,26.4040,-81.8810,-0.187,1111122 
COMPS,ioos:station:USF.COMPS:BGC:1,2010-05-01T05:18:00Z,26.4040,-81.8810,-0.182,1111122 
COMPS,ioos:station:USF.COMPS:BGC:1,2010-05-01T05:24:00Z,26.4040,-81.8810,-0.167,1111122 
COMPS,ioos:station:USF.COMPS:BGC:1,2010-05-01T05:30:00Z,26.4040,-81.8810,-0.154,1111122 
COMPS,ioos:station:USF.COMPS:BGC:1,2010-05-01T05:36:00Z,26.4040,-81.8810,-0.144,1111122 
COMPS,ioos:station:USF.COMPS:BGC:1,2010-05-01T05:42:00Z,26.4040,-81.8810,-0.13,1111122 
COMPS,ioos:station:USF.COMPS:BGC:1,2010-05-01T05:48:00Z,26.4040,-81.8810,-0.124,1111122 
COMPS,ioos:station:USF.COMPS:BGC:1,2010-05-01T05:54:00Z,26.4040,-81.8810,-0.105,1111122 
COMPS,ioos:station:USF.COMPS:BGC:1,2010-05-01T06:00:00Z,26.4040,-81.8810,-0.096,1111122 
COMPS,ioos:station:USF.COMPS:BGC:1,2010-05-01T06:06:00Z,26.4040,-81.8810,-0.086,1111122 
COMPS,ioos:station:USF.COMPS:BGC:1,2010-05-01T06:12:00Z,26.4040,-81.8810,-0.079,1111122 
COMPS,ioos:station:USF.COMPS:BGC:1,2010-05-01T06:18:00Z,26.4040,-81.8810,-0.067,1111122 
COMPS,ioos:station:USF.COMPS:BGC:1,2010-05-01T06:24:00Z,26.4040,-81.8810,-0.06,1111122 
COMPS,ioos:station:USF.COMPS:BGC:1,2010-05-01T06:30:00Z,26.4040,-81.8810,-0.048,1111122 
COMPS,ioos:station:USF.COMPS:BGC:1,2010-05-01T06:36:00Z,26.4040,-81.8810,-0.041,1111122 
COMPS,ioos:station:USF.COMPS:BGC:1,2010-05-01T06:42:00Z,26.4040,-81.8810,-0.035,1111122 
COMPS,ioos:station:USF.COMPS:BGC:1,2010-05-01T06:48:00Z,26.4040,-81.8810,-0.027,1111122 
COMPS,ioos:station:USF.COMPS:BGC:1,2010-05-01T06:54:00Z,26.4040,-81.8810,-0.016,1111122 
COMPS,ioos:station:USF.COMPS:BGC:1,2010-05-01T07:00:00Z,26.4040,-81.8810,-0.012,1111122 
COMPS,ioos:station:USF.COMPS:BGC:1,2010-05-01T07:06:00Z,26.4040,-81.8810,-0.006,1111122 
COMPS,ioos:station:USF.COMPS:BGC:1,2010-05-01T07:12:00Z,26.4040,-81.8810,0.005,1111122 
COMPS,ioos:station:USF.COMPS:BGC:1,2010-05-01T07:18:00Z,26.4040,-81.8810,0.013,1111122 
COMPS,ioos:station:USF.COMPS:BGC:1,2010-05-01T07:24:00Z,26.4040,-81.8810,0.022,1111122 
COMPS,ioos:station:USF.COMPS:BGC:1,2010-05-01T07:30:00Z,26.4040,-81.8810,0.028,1111122 
COMPS,ioos:station:USF.COMPS:BGC:1,2010-05-01T07:36:00Z,26.4040,-81.8810,0.031,1111122 
COMPS,ioos:station:USF.COMPS:BGC:1,2010-05-01T07:42:00Z,26.4040,-81.8810,0.042,1111122 
COMPS,ioos:station:USF.COMPS:BGC:1,2010-05-01T07:48:00Z,26.4040,-81.8810,0.042,1111122 
COMPS,ioos:station:USF.COMPS:BGC:1,2010-05-01T07:54:00Z,26.4040,-81.8810,0.044,1111122 
COMPS,ioos:station:USF.COMPS:BGC:1,2010-05-01T08:00:00Z,26.4040,-81.8810,0.045,1111122 
COMPS,ioos:station:USF.COMPS:BGC:1,2010-05-01T08:06:00Z,26.4040,-81.8810,0.052,1111122 
COMPS,ioos:station:USF.COMPS:BGC:1,2010-05-01T08:12:00Z,26.4040,-81.8810,0.052,1111122 
COMPS,ioos:station:USF.COMPS:BGC:1,2010-05-01T08:18:00Z,26.4040,-81.8810,0.054,1111122 
COMPS,ioos:station:USF.COMPS:BGC:1,2010-05-01T08:24:00Z,26.4040,-81.8810,0.063,1111122 
COMPS,ioos:station:USF.COMPS:BGC:1,2010-05-01T08:30:00Z,26.4040,-81.8810,0.063,1111122 
COMPS,ioos:station:USF.COMPS:BGC:1,2010-05-01T08:36:00Z,26.4040,-81.8810,0.069,1111122 
COMPS,ioos:station:USF.COMPS:BGC:1,2010-05-01T08:42:00Z,26.4040,-81.8810,0.067,1111122 
COMPS,ioos:station:USF.COMPS:BGC:1,2010-05-01T08:48:00Z,26.4040,-81.8810,0.068,1111122 
COMPS,ioos:station:USF.COMPS:BGC:1,2010-05-01T08:54:00Z,26.4040,-81.8810,0.065,1111122 
COMPS,ioos:station:USF.COMPS:BGC:1,2010-05-01T09:00:00Z,26.4040,-81.8810,0.067,1111122 
COMPS,ioos:station:USF.COMPS:BGC:1,2010-05-01T09:06:00Z,26.4040,-81.8810,0.064,1111122 
COMPS,ioos:station:USF.COMPS:BGC:1,2010-05-01T09:12:00Z,26.4040,-81.8810,0.053,1111122 
COMPS,ioos:station:USF.COMPS:BGC:1,2010-05-01T09:18:00Z,26.4040,-81.8810,0.052,1111122 
COMPS,ioos:station:USF.COMPS:BGC:1,2010-05-01T09:24:00Z,26.4040,-81.8810,0.058,1111122 
COMPS,ioos:station:USF.COMPS:BGC:1,2010-05-01T09:30:00Z,26.4040,-81.8810,0.054,1111122 
COMPS,ioos:station:USF.COMPS:BGC:1,2010-05-01T09:36:00Z,26.4040,-81.8810,0.051,1111122 
COMPS,ioos:station:USF.COMPS:BGC:1,2010-05-01T09:42:00Z,26.4040,-81.8810,0.04,1111122 
COMPS,ioos:station:USF.COMPS:BGC:1,2010-05-01T09:48:00Z,26.4040,-81.8810,0.038,1111122 
COMPS,ioos:station:USF.COMPS:BGC:1,2010-05-01T09:54:00Z,26.4040,-81.8810,0.031,1111122 
COMPS,ioos:station:USF.COMPS:BGC:1,2010-05-01T10:00:00Z,26.4040,-81.8810,0.015,1111122 
COMPS,ioos:station:USF.COMPS:BGC:1,2010-05-01T10:06:00Z,26.4040,-81.8810,0.015,1111122 
COMPS,ioos:station:USF.COMPS:BGC:1,2010-05-01T10:12:00Z,26.4040,-81.8810,0.021,1111122 
COMPS,ioos:station:USF.COMPS:BGC:1,2010-05-01T10:18:00Z,26.4040,-81.8810,0.014,1111122 
COMPS,ioos:station:USF.COMPS:BGC:1,2010-05-01T10:24:00Z,26.4040,-81.8810,0.001,1111122 
COMPS,ioos:station:USF.COMPS:BGC:1,2010-05-01T10:30:00Z,26.4040,-81.8810,-0.012,1111122 
COMPS,ioos:station:USF.COMPS:BGC:1,2010-05-01T10:36:00Z,26.4040,-81.8810,-0.004,1111122 
COMPS,ioos:station:USF.COMPS:BGC:1,2010-05-01T10:42:00Z,26.4040,-81.8810,-0.012,1111122 
COMPS,ioos:station:USF.COMPS:BGC:1,2010-05-01T10:48:00Z,26.4040,-81.8810,-0.024,1111122 
COMPS,ioos:station:USF.COMPS:BGC:1,2010-05-01T10:54:00Z,26.4040,-81.8810,-0.028,1111122 
COMPS,ioos:station:USF.COMPS:BGC:1,2010-05-01T11:00:00Z,26.4040,-81.8810,-0.03,1111122 
COMPS,ioos:station:USF.COMPS:BGC:1,2010-05-01T11:06:00Z,26.4040,-81.8810,-0.03,1111122 
COMPS,ioos:station:USF.COMPS:BGC:1,2010-05-01T11:12:00Z,26.4040,-81.8810,-0.047,1111122 
COMPS,ioos:station:USF.COMPS:BGC:1,2010-05-01T11:18:00Z,26.4040,-81.8810,-0.036,1111122 
COMPS,ioos:station:USF.COMPS:BGC:1,2010-05-01T11:24:00Z,26.4040,-81.8810,-0.037,1111122 
COMPS,ioos:station:USF.COMPS:BGC:1,2010-05-01T11:30:00Z,26.4040,-81.8810,-0.046,1111122 
COMPS,ioos:station:USF.COMPS:BGC:1,2010-05-01T11:36:00Z,26.4040,-81.8810,-0.046,1111122 
COMPS,ioos:station:USF.COMPS:BGC:1,2010-05-01T11:42:00Z,26.4040,-81.8810,-0.049,1111122 
COMPS,ioos:station:USF.COMPS:BGC:1,2010-05-01T11:48:00Z,26.4040,-81.8810,-0.051,1111122 
COMPS,ioos:station:USF.COMPS:BGC:1,2010-05-01T11:54:00Z,26.4040,-81.8810,-0.052,1111122 
COMPS,ioos:station:USF.COMPS:BGC:1,2010-05-01T12:00:00Z,26.4040,-81.8810,-0.056,1111122 
COMPS,ioos:station:USF.COMPS:BGC:1,2010-05-01T12:06:00Z,26.4040,-81.8810,-0.064,1111122 
COMPS,ioos:station:USF.COMPS:BGC:1,2010-05-01T12:12:00Z,26.4040,-81.8810,-0.058,1111122 
COMPS,ioos:station:USF.COMPS:BGC:1,2010-05-01T12:18:00Z,26.4040,-81.8810,-0.061,1111122 
COMPS,ioos:station:USF.COMPS:BGC:1,2010-05-01T12:24:00Z,26.4040,-81.8810,-0.071,1111122 
COMPS,ioos:station:USF.COMPS:BGC:1,2010-05-01T12:30:00Z,26.4040,-81.8810,-0.07,1111122 
COMPS,ioos:station:USF.COMPS:BGC:1,2010-05-01T12:36:00Z,26.4040,-81.8810,-0.063,1111122 
COMPS,ioos:station:USF.COMPS:BGC:1,2010-05-01T12:42:00Z,26.4040,-81.8810,-0.064,1111122 
COMPS,ioos:station:USF.COMPS:BGC:1,2010-05-01T12:48:00Z,26.4040,-81.8810,-0.058,1111122 
COMPS,ioos:station:USF.COMPS:BGC:1,2010-05-01T12:54:00Z,26.4040,-81.8810,-0.059,1111122 
COMPS,ioos:station:USF.COMPS:BGC:1,2010-05-01T13:00:00Z,26.4040,-81.8810,-0.051,1111122 
COMPS,ioos:station:USF.COMPS:BGC:1,2010-05-01T13:06:00Z,26.4040,-81.8810,-0.055,1111122 
COMPS,ioos:station:USF.COMPS:BGC:1,2010-05-01T13:12:00Z,26.4040,-81.8810,-0.048,1111122 
COMPS,ioos:station:USF.COMPS:BGC:1,2010-05-01T13:18:00Z,26.4040,-81.8810,-0.05,1111122 
COMPS,ioos:station:USF.COMPS:BGC:1,2010-05-01T13:24:00Z,26.4040,-81.8810,-0.043,1111122 
COMPS,ioos:station:USF.COMPS:BGC:1,2010-05-01T13:30:00Z,26.4040,-81.8810,-0.029,1111122 
COMPS,ioos:station:USF.COMPS:BGC:1,2010-05-01T13:36:00Z,26.4040,-81.8810,-0.031,1111122 
COMPS,ioos:station:USF.COMPS:BGC:1,2010-05-01T13:42:00Z,26.4040,-81.8810,-0.022,1111122 
COMPS,ioos:station:USF.COMPS:BGC:1,2010-05-01T13:48:00Z,26.4040,-81.8810,-0.018,1111122 
COMPS,ioos:station:USF.COMPS:BGC:1,2010-05-01T13:54:00Z,26.4040,-81.8810,-0.013,1111122 
COMPS,ioos:station:USF.COMPS:BGC:1,2010-05-01T14:00:00Z,26.4040,-81.8810,0.0,1114422 
COMPS,ioos:station:USF.COMPS:BGC:1,2010-05-01T14:06:00Z,26.4040,-81.8810,0.006,1111122 
COMPS,ioos:station:USF.COMPS:BGC:1,2010-05-01T14:12:00Z,26.4040,-81.8810,0.015,1111122 
COMPS,ioos:station:USF.COMPS:BGC:1,2010-05-01T14:18:00Z,26.4040,-81.8810,0.019,1111122 
COMPS,ioos:station:USF.COMPS:BGC:1,2010-05-01T14:24:00Z,26.4040,-81.8810,0.034,1111122 
COMPS,ioos:station:USF.COMPS:BGC:1,2010-05-01T14:30:00Z,26.4040,-81.8810,0.043,1111122 
COMPS,ioos:station:USF.COMPS:BGC:1,2010-05-01T14:36:00Z,26.4040,-81.8810,0.048,1111122 
COMPS,ioos:station:USF.COMPS:BGC:1,2010-05-01T14:42:00Z,26.4040,-81.8810,0.065,1111122 
COMPS,ioos:station:USF.COMPS:BGC:1,2010-05-01T14:48:00Z,26.4040,-81.8810,0.077,1111122 
COMPS,ioos:station:USF.COMPS:BGC:1,2010-05-01T14:54:00Z,26.4040,-81.8810,0.081,1111122 
COMPS,ioos:station:USF.COMPS:BGC:1,2010-05-01T15:00:00Z,26.4040,-81.8810,0.092,1111122 
COMPS,ioos:station:USF.COMPS:BGC:1,2010-05-01T15:06:00Z,26.4040,-81.8810,0.106,1111122 
COMPS,ioos:station:USF.COMPS:BGC:1,2010-05-01T15:12:00Z,26.4040,-81.8810,0.114,1111122 
COMPS,ioos:station:USF.COMPS:BGC:1,2010-05-01T15:18:00Z,26.4040,-81.8810,0.119,1111122 
COMPS,ioos:station:USF.COMPS:BGC:1,2010-05-01T15:24:00Z,26.4040,-81.8810,0.134,1111122 
COMPS,ioos:station:USF.COMPS:BGC:1,2010-05-01T15:30:00Z,26.4040,-81.8810,0.14,1111122 
COMPS,ioos:station:USF.COMPS:BGC:1,2010-05-01T15:36:00Z,26.4040,-81.8810,0.151,1111122 
COMPS,ioos:station:USF.COMPS:BGC:1,2010-05-01T15:42:00Z,26.4040,-81.8810,0.167,1111122 
COMPS,ioos:station:USF.COMPS:BGC:1,2010-05-01T15:48:00Z,26.4040,-81.8810,0.187,1111122 
COMPS,ioos:station:USF.COMPS:BGC:1,2010-05-01T15:54:00Z,26.4040,-81.8810,0.192,1111122 
COMPS,ioos:station:USF.COMPS:BGC:1,2010-05-01T16:00:00Z,26.4040,-81.8810,0.197,1111122 
COMPS,ioos:station:USF.COMPS:BGC:1,2010-05-01T16:06:00Z,26.4040,-81.8810,0.209,1111122 
COMPS,ioos:station:USF.COMPS:BGC:1,2010-05-01T16:12:00Z,26.4040,-81.8810,0.219,1111122 
COMPS,ioos:station:USF.COMPS:BGC:1,2010-05-01T16:18:00Z,26.4040,-81.8810,0.225,1111122 
COMPS,ioos:station:USF.COMPS:BGC:1,2010-05-01T16:24:00Z,26.4040,-81.8810,0.237,1111122 
COMPS,ioos:station:USF.COMPS:BGC:1,2010-05-01T16:30:00Z,26.4040,-81.8810,0.244,1111122 
COMPS,ioos:station:USF.COMPS:BGC:1,2010-05-01T16:36:00Z,26.4040,-81.8810,0.249,1111122 
COMPS,ioos:station:USF.COMPS:BGC:1,2010-05-01T16:42:00Z,26.4040,-81.8810,0.254,1111122 
COMPS,ioos:station:USF.COMPS:BGC:1,2010-05-01T16:48:00Z,26.4040,-81.8810,0.261,1111122 
COMPS,ioos:station:USF.COMPS:BGC:1,2010-05-01T16:54:00Z,26.4040,-81.8810,0.274,1111122 
COMPS,ioos:station:USF.COMPS:BGC:1,2010-05-01T17:00:00Z,26.4040,-81.8810,0.285,1111122 
COMPS,ioos:station:USF.COMPS:BGC:1,2010-05-01T17:06:00Z,26.4040,-81.8810,0.288,1111122 
COMPS,ioos:station:USF.COMPS:BGC:1,2010-05-01T17:12:00Z,26.4040,-81.8810,0.295,1111122 
COMPS,ioos:station:USF.COMPS:BGC:1,2010-05-01T17:18:00Z,26.4040,-81.8810,0.304,1111122 
COMPS,ioos:station:USF.COMPS:BGC:1,2010-05-01T17:24:00Z,26.4040,-81.8810,0.303,1111122 
COMPS,ioos:station:USF.COMPS:BGC:1,2010-05-01T17:30:00Z,26.4040,-81.8810,0.308,1111122 
COMPS,ioos:station:USF.COMPS:BGC:1,2010-05-01T17:36:00Z,26.4040,-81.8810,0.318,1111122 
COMPS,ioos:station:USF.COMPS:BGC:1,2010-05-01T17:42:00Z,26.4040,-81.8810,0.32,1111122 
COMPS,ioos:station:USF.COMPS:BGC:1,2010-05-01T17:48:00Z,26.4040,-81.8810,0.327,1111122 
COMPS,ioos:station:USF.COMPS:BGC:1,2010-05-01T17:54:00Z,26.4040,-81.8810,0.334,1111122 
COMPS,ioos:station:USF.COMPS:BGC:1,2010-05-01T18:00:00Z,26.4040,-81.8810,0.33,1111122 
COMPS,ioos:station:USF.COMPS:BGC:1,2010-05-01T18:06:00Z,26.4040,-81.8810,0.332,1111122 
COMPS,ioos:station:USF.COMPS:BGC:1,2010-05-01T18:12:00Z,26.4040,-81.8810,0.338,1111122 
COMPS,ioos:station:USF.COMPS:BGC:1,2010-05-01T18:18:00Z,26.4040,-81.8810,0.342,1111122 
COMPS,ioos:station:USF.COMPS:BGC:1,2010-05-01T18:24:00Z,26.4040,-81.8810,0.34,1111122 
COMPS,ioos:station:USF.COMPS:BGC:1,2010-05-01T18:30:00Z,26.4040,-81.8810,0.349,1111122 
COMPS,ioos:station:USF.COMPS:BGC:1,2010-05-01T18:36:00Z,26.4040,-81.8810,0.351,1111122 
COMPS,ioos:station:USF.COMPS:BGC:1,2010-05-01T18:42:00Z,26.4040,-81.8810,0.349,1111122 
COMPS,ioos:station:USF.COMPS:BGC:1,2010-05-01T18:48:00Z,26.4040,-81.8810,0.355,1111122 
COMPS,ioos:station:USF.COMPS:BGC:1,2010-05-01T18:54:00Z,26.4040,-81.8810,0.353,1111122 
COMPS,ioos:station:USF.COMPS:BGC:1,2010-05-01T19:00:00Z,26.4040,-81.8810,0.349,1111122 
COMPS,ioos:station:USF.COMPS:BGC:1,2010-05-01T19:06:00Z,26.4040,-81.8810,0.351,1111122 
COMPS,ioos:station:USF.COMPS:BGC:1,2010-05-01T19:12:00Z,26.4040,-81.8810,0.347,1111122 
COMPS,ioos:station:USF.COMPS:BGC:1,2010-05-01T19:18:00Z,26.4040,-81.8810,0.352,1111122 
COMPS,ioos:station:USF.COMPS:BGC:1,2010-05-01T19:24:00Z,26.4040,-81.8810,0.354,1111122 
COMPS,ioos:station:USF.COMPS:BGC:1,2010-05-01T19:30:00Z,26.4040,-81.8810,0.34,1111122 
COMPS,ioos:station:USF.COMPS:BGC:1,2010-05-01T19:36:00Z,26.4040,-81.8810,0.348,1111122 
COMPS,ioos:station:USF.COMPS:BGC:1,2010-05-01T19:42:00Z,26.4040,-81.8810,0.349,1111122 
COMPS,ioos:station:USF.COMPS:BGC:1,2010-05-01T19:48:00Z,26.4040,-81.8810,0.331,1111122 
COMPS,ioos:station:USF.COMPS:BGC:1,2010-05-01T19:54:00Z,26.4040,-81.8810,0.336,1111122 
COMPS,ioos:station:USF.COMPS:BGC:1,2010-05-01T20:00:00Z,26.4040,-81.8810,0.324,1111122 
COMPS,ioos:station:USF.COMPS:BGC:1,2010-05-01T20:06:00Z,26.4040,-81.8810,0.315,1111122 
COMPS,ioos:station:USF.COMPS:BGC:1,2010-05-01T20:12:00Z,26.4040,-81.8810,0.306,1111122 
COMPS,ioos:station:USF.COMPS:BGC:1,2010-05-01T20:18:00Z,26.4040,-81.8810,0.301,1111122 
COMPS,ioos:station:USF.COMPS:BGC:1,2010-05-01T20:24:00Z,26.4040,-81.8810,0.286,1111122 
COMPS,ioos:station:USF.COMPS:BGC:1,2010-05-01T20:30:00Z,26.4040,-81.8810,0.283,1111122 
COMPS,ioos:station:USF.COMPS:BGC:1,2010-05-01T20:36:00Z,26.4040,-81.8810,0.268,1111122 
COMPS,ioos:station:USF.COMPS:BGC:1,2010-05-01T20:42:00Z,26.4040,-81.8810,0.253,1111122 
COMPS,ioos:station:USF.COMPS:BGC:1,2010-05-01T20:48:00Z,26.4040,-81.8810,0.24,1111122 
COMPS,ioos:station:USF.COMPS:BGC:1,2010-05-01T20:54:00Z,26.4040,-81.8810,0.224,1111122 
COMPS,ioos:station:USF.COMPS:BGC:1,2010-05-01T21:00:00Z,26.4040,-81.8810,0.215,1111122 
COMPS,ioos:station:USF.COMPS:BGC:1,2010-05-01T21:06:00Z,26.4040,-81.8810,0.193,1111122 
COMPS,ioos:station:USF.COMPS:BGC:1,2010-05-01T21:12:00Z,26.4040,-81.8810,0.177,1111122 
COMPS,ioos:station:USF.COMPS:BGC:1,2010-05-01T21:18:00Z,26.4040,-81.8810,0.166,1111122 
COMPS,ioos:station:USF.COMPS:BGC:1,2010-05-01T21:24:00Z,26.4040,-81.8810,0.147,1111122 
COMPS,ioos:station:USF.COMPS:BGC:1,2010-05-01T21:30:00Z,26.4040,-81.8810,0.129,1111122 
COMPS,ioos:station:USF.COMPS:BGC:1,2010-05-01T21:36:00Z,26.4040,-81.8810,0.114,1111122 
COMPS,ioos:station:USF.COMPS:BGC:1,2010-05-01T21:42:00Z,26.4040,-81.8810,0.095,1111122 
COMPS,ioos:station:USF.COMPS:BGC:1,2010-05-01T21:48:00Z,26.4040,-81.8810,0.084,1111122 
COMPS,ioos:station:USF.COMPS:BGC:1,2010-05-01T21:54:00Z,26.4040,-81.8810,0.064,1111122 
COMPS,ioos:station:USF.COMPS:BGC:1,2010-05-01T22:00:00Z,26.4040,-81.8810,0.051,1111122 
COMPS,ioos:station:USF.COMPS:BGC:1,2010-05-01T22:06:00Z,26.4040,-81.8810,0.034,1111122 
COMPS,ioos:station:USF.COMPS:BGC:1,2010-05-01T22:12:00Z,26.4040,-81.8810,0.019,1111122 
COMPS,ioos:station:USF.COMPS:BGC:1,2010-05-01T22:18:00Z,26.4040,-81.8810,0.006,1111122 
COMPS,ioos:station:USF.COMPS:BGC:1,2010-05-01T22:24:00Z,26.4040,-81.8810,-0.011,1111122 
COMPS,ioos:station:USF.COMPS:BGC:1,2010-05-01T22:30:00Z,26.4040,-81.8810,-0.028,1111122 
COMPS,ioos:station:USF.COMPS:BGC:1,2010-05-01T22:36:00Z,26.4040,-81.8810,-0.043,1111122 
COMPS,ioos:station:USF.COMPS:BGC:1,2010-05-01T22:42:00Z,26.4040,-81.8810,-0.06,1111122 
COMPS,ioos:station:USF.COMPS:BGC:1,2010-05-01T22:48:00Z,26.4040,-81.8810,-0.077,1111122 
COMPS,ioos:station:USF.COMPS:BGC:1,2010-05-01T22:54:00Z,26.4040,-81.8810,-0.096,1111122 
COMPS,ioos:station:USF.COMPS:BGC:1,2010-05-01T23:00:00Z,26.4040,-81.8810,-0.111,1111122 
COMPS,ioos:station:USF.COMPS:BGC:1,2010-05-01T23:06:00Z,26.4040,-81.8810,-0.129,1111122 
COMPS,ioos:station:USF.COMPS:BGC:1,2010-05-01T23:12:00Z,26.4040,-81.8810,-0.148,1111122 
COMPS,ioos:station:USF.COMPS:BGC:1,2010-05-01T23:18:00Z,26.4040,-81.8810,-0.168,1111122 
COMPS,ioos:station:USF.COMPS:BGC:1,2010-05-01T23:24:00Z,26.4040,-81.8810,-0.182,1111122 
COMPS,ioos:station:USF.COMPS:BGC:1,2010-05-01T23:30:00Z,26.4040,-81.8810,-0.199,1111122 
COMPS,ioos:station:USF.COMPS:BGC:1,2010-05-01T23:36:00Z,26.4040,-81.8810,-0.217,1111122 
COMPS,ioos:station:USF.COMPS:BGC:1,2010-05-01T23:42:00Z,26.4040,-81.8810,-0.235,1111122 
COMPS,ioos:station:USF.COMPS:BGC:1,2010-05-01T23:48:00Z,26.4040,-81.8810,-0.253,1111122 
COMPS,ioos:station:USF.COMPS:BGC:1,2010-05-01T23:54:00Z,26.4040,-81.8810,-0.267,1111122 
COMPS,ioos:station:USF.COMPS:BGC:1,2010-05-02T00:00:00Z,26.4040,-81.8810,-0.283,1111122 
COMPS,ioos:station:USF.COMPS:BGC:1,2010-05-02T00:06:00Z,26.4040,-81.8810,-0.301,1111122 
COMPS,ioos:station:USF.COMPS:BGC:1,2010-05-02T00:12:00Z,26.4040,-81.8810,-0.315,1111122 
COMPS,ioos:station:USF.COMPS:BGC:1,2010-05-02T00:18:00Z,26.4040,-81.8810,-0.327,1111122 
COMPS,ioos:station:USF.COMPS:BGC:1,2010-05-02T00:24:00Z,26.4040,-81.8810,-0.345,1111122 
COMPS,ioos:station:USF.COMPS:BGC:1,2010-05-02T00:30:00Z,26.4040,-81.8810,-0.359,1111122 
COMPS,ioos:station:USF.COMPS:BGC:1,2010-05-02T00:36:00Z,26.4040,-81.8810,-0.374,1111122 
COMPS,ioos:station:USF.COMPS:BGC:1,2010-05-02T00:42:00Z,26.4040,-81.8810,-0.387,1111122 
COMPS,ioos:station:USF.COMPS:BGC:1,2010-05-02T00:48:00Z,26.4040,-81.8810,-0.4,1111122 
COMPS,ioos:station:USF.COMPS:BGC:1,2010-05-02T00:54:00Z,26.4040,-81.8810,-0.414,1111122 
COMPS,ioos:station:USF.COMPS:BGC:1,2010-05-02T01:00:00Z,26.4040,-81.8810,-0.427,1111122 
COMPS,ioos:station:USF.COMPS:BGC:1,2010-05-02T01:06:00Z,26.4040,-81.8810,-0.441,1111122 
COMPS,ioos:station:USF.COMPS:BGC:1,2010-05-02T01:12:00Z,26.4040,-81.8810,-0.452,1111122 
COMPS,ioos:station:USF.COMPS:BGC:1,2010-05-02T01:18:00Z,26.4040,-81.8810,-0.465,1111122 
COMPS,ioos:station:USF.COMPS:BGC:1,2010-05-02T01:24:00Z,26.4040,-81.8810,-0.479,1111122 
COMPS,ioos:station:USF.COMPS:BGC:1,2010-05-02T01:30:00Z,26.4040,-81.8810,-0.487,1111122 
COMPS,ioos:station:USF.COMPS:BGC:1,2010-05-02T01:36:00Z,26.4040,-81.8810,-0.499,1111122 
COMPS,ioos:station:USF.COMPS:BGC:1,2010-05-02T01:42:00Z,26.4040,-81.8810,-0.51,1111122 
COMPS,ioos:station:USF.COMPS:BGC:1,2010-05-02T01:48:00Z,26.4040,-81.8810,-0.516,1111122 
COMPS,ioos:station:USF.COMPS:BGC:1,2010-05-02T01:54:00Z,26.4040,-81.8810,-0.525,1111122 
COMPS,ioos:station:USF.COMPS:BGC:1,2010-05-02T02:00:00Z,26.4040,-81.8810,-0.536,1111122 
COMPS,ioos:station:USF.COMPS:BGC:1,2010-05-02T02:06:00Z,26.4040,-81.8810,-0.545,1111122 
COMPS,ioos:station:USF.COMPS:BGC:1,2010-05-02T02:12:00Z,26.4040,-81.8810,-0.549,1111122 
COMPS,ioos:station:USF.COMPS:BGC:1,2010-05-02T02:18:00Z,26.4040,-81.8810,-0.552,1111122 
COMPS,ioos:station:USF.COMPS:BGC:1,2010-05-02T02:24:00Z,26.4040,-81.8810,-0.563,1111122 
COMPS,ioos:station:USF.COMPS:BGC:1,2010-05-02T02:30:00Z,26.4040,-81.8810,-0.567,1111122 
COMPS,ioos:station:USF.COMPS:BGC:1,2010-05-02T02:36:00Z,26.4040,-81.8810,-0.568,1111122 
COMPS,ioos:station:USF.COMPS:BGC:1,2010-05-02T02:42:00Z,26.4040,-81.8810,-0.568,1111122 
COMPS,ioos:station:USF.COMPS:BGC:1,2010-05-02T02:48:00Z,26.4040,-81.8810,-0.568,1111122 
COMPS,ioos:station:USF.COMPS:BGC:1,2010-05-02T02:54:00Z,26.4040,-81.8810,-0.568,1111122 